Regional Weather Roundup
Issued by NWS

Home | Current Version | Previous Version | Text Only | Print | Product List | Glossary Off
Versions: 1 2 3 4 5 6 7 8 9 10 11 12 13 14 15 16 17 18 19 20 21 22 23 24 25 26 27 28 29 30 31 32 33 34 35 36 37 38 39 40 41 42 43 44 45 46 47 48 49 50

000
ASUS43 KMKX 152200
RWRWI

WISCONSIN REGIONAL WEATHER ROUNDUP
NATIONAL WEATHER SERVICE MILWAUKEE/SULLIVAN WI
400 PM CST MON JAN 15 2018

NOTE: "FAIR" INDICATES FEW OR NO CLOUDS BELOW 12,000 FEET WITH NO
SIGNIFICANT WEATHER AND/OR OBSTRUCTIONS TO VISIBILITY.

WIZ001-002-006>008-014>016-023>028-152300-
NORTHWEST WISCONSIN

CITY           SKY/WX    TMP DP  RH WIND       PRES   REMARKS
SUPERIOR ARPT  CLOUDY    12   4  70 NW13      30.43R WCI  -3
ASHLAND        LGT SNOW  19  16  88 N8        30.36R FOG     WCI   9
HAYWARD        LGT SNOW  14   7  73 NW8       30.33R WCI   3
SIREN          MOCLDY     8  -1  66 NW9       30.40R WCI  -5
CUMBERLAND     CLOUDY     9   1  72 N13G20    30.32R WCI  -7
RICE LAKE      MOCLDY    10   3  74 CALM      30.34R
CHETEK         MOCLDY     9   3  77 NW6       30.32R WCI  -1
LADYSMITH      LGT SNOW  18  12  77 N16G22    30.29R WCI   3
EAU CLAIRE     LGT SNOW  10   4  76 NW9       30.32R WCI  -3
MENOMONIE      LGT SNOW  10   3  75 W10       30.35R WCI  -4
NEW RICHMOND   LGT SNOW   7  -1  70 NW16      30.38R WCI -11
OSCEOLA        CLOUDY     7   0  70 NW12      30.44R WCI  -8
$$

WIZ003>005-009-010-017-018-152300-
NORTH CENTRAL WISCONSIN

CITY           SKY/WX    TMP DP  RH WIND       PRES   REMARKS
MANITOWISH WTR CLOUDY    17  14  86 NE6       30.23R WCI   9
ARBOR VITAE    CLOUDY    22  18  84 NE5       30.21R WCI  15
WOODRUFF       CLOUDY    22  18  84 NE5       30.21R WCI  15
RHINELANDER    LGT SNOW  20  16  84 NE5       30.21R FOG     WCI  13
EAGLE RIVER    LGT SNOW  19  14  80 NE7       30.21R WCI  10
LAND O LAKES   FLURRIES  19  15  82 NE7       30.24R WCI  10
PHILLIPS       LGT SNOW  17  14  87 N7        30.23R WCI   8
TOMAHAWK       LGT SNOW  21  16  81 CALM      30.21R
MEDFORD        LGT SNOW  17  13  84 N9        30.19R WCI   6
MERRILL        LGT SNOW  21  17  84 E3        30.21R
$$

WIZ029-030-035-036-043>047-152300-
CENTRAL WISCONSIN

CITY           SKY/WX    TMP DP  RH WIND       PRES   REMARKS
WAUSAU         LGT SNOW  20  17  88 E6        30.19R FOG     WCI  12
MOSINEE        LGT SNOW  19  18  93 N6        30.20R VSB 3/4 WCI  11
MARSHFIELD     LGT SNOW  18  13  80 NW10      30.20R WCI   6
STEVENS POINT  MIX PCPN  19  17  95 N6        30.20R VSB 1/2 WCI  10
WAUPACA        LGT SNOW  25  20  81 N7        30.20R WCI  17
WAUTOMA        LGT SNOW  21  17  84 N6        30.21R FOG     WCI  13
WISC RAPIDS    LGT SNOW  20  13  74 N8        30.22R WCI  10
CAMP DOUGLAS   LGT SNOW N/A N/A N/A W14       30.24R
$$

WIZ011>013-019>022-031-037>040-048>050-152300-
NORTHEAST WISCONSIN

CITY           SKY/WX    TMP DP  RH WIND       PRES   REMARKS
ANTIGO         CLOUDY    20  14  78 NE13G18   30.19R WCI   7
SHAWANO        MOCLDY    23  19  81 NE7       30.23R WCI  15
OCONTO         CLOUDY    20  17  88 NE8       30.26R WCI  11
STURGEON BAY   LGT SNOW  22  17  81 NE7       30.26R WCI  13
GREEN BAY      LGT SNOW  22  18  85 NE13      30.24R FOG     WCI  10
MANITOWOC      LGT SNOW  22  19  89 E8        30.23R FOG     WCI  12
APPLETON       LGT SNOW  21  18  86 NE10      30.18R WCI  10
CLINTONVILLE   LGT SNOW  23  19  86 E7        30.22R WCI  15
OSHKOSH        LGT SNOW  23  20  88 NE8       30.18R VSB 3/4 WCI  14
$$

WIZ032>034-041-042-053>061-152300-
SOUTHWEST WISCONSIN

CITY           SKY/WX    TMP DP  RH WIND       PRES   REMARKS
LA CROSSE      LGT SNOW  11   4  73 NW17      30.33R WCI  -6
SPARTA         LGT SNOW  13   9  83 W7        30.29R WCI   2
VIROQUA        CLOUDY    10   6  85 NW16      30.24R WCI  -8
BOSCOBEL       LGT SNOW  13   5  70 W3        30.30R
PRAIRIE DU CHI CLOUDY    10   1  68 W14G20    30.32R WCI  -6
PLATTEVILLE    FAIR      12   8  82 W12G18    30.24R WCI  -2
$$

WIZ056-057-062-063-064-067-068-152300-
SOUTH CENTRAL WISCONSIN

CITY           SKY/WX    TMP DP  RH WIND       PRES   REMARKS
REEDSBURG      LGT SNOW  16  11  81 NW14      30.21R WCI   1
BARABOO/DELLS  LGT SNOW  18  15  85 NW7       30.19R VSB 1   WCI   9
LONE ROCK      LGT SNOW  15   9  76 NW13      30.25R WCI   1
MINERAL POINT  LGT SNOW  14  10  85 NW15G21   30.20R WCI  -1
MADISON        LGT SNOW  20  16  84 N9        30.19R FOG     WCI   9
MIDDLETON      CLOUDY    20  16  84 W8        30.19R WCI  11
WATERTOWN      CLOUDY    21  17  86 N5        30.16R WCI  14
MONROE         LGT SNOW  16  12  86 W13G20    30.17R WCI   2
JANESVILLE     LGT SNOW  19  18  93 W12       30.18R VSB 1   WCI   7
$$

WIZ051-052-058>065-066-070>072-152300-
SOUTHEAST WISCONSIN

CITY           SKY/WX    TMP DP  RH WIND       PRES   REMARKS
MILWAUKEE      LGT SNOW  24  20  84 NE5       30.17R FOG     WCI  18
WAUKESHA       CLOUDY    21  14  73 NW3       30.16R
MILWAUKEE/TIMM LGT SNOW  25  16  68 N6        30.17R WCI  18
RACINE         LGT SNOW  23  17  78 NW3       30.18R
BURLINGTON     LGT SNOW  20  15  81 W7        30.17R WCI  11
KENOSHA        LGT SNOW  21  15  78 SW12      30.17R WCI   9
FOND DU LAC    LGT SNOW  22  17  81 N7        30.18R WCI  13
SHEBOYGAN      LGT SNOW  23  20  88 E14       30.19R VSB 3/4 WCI  11
WEST BEND      LGT SNOW  23  19  86 CALM      30.16R
JUNEAU         CLOUDY    20  15  81 N6        30.17R WCI  12
$$

LSZ147-162-152300-
LAKE SUPERIOR

STATION/POSITION TIME  TEMP    WIND        PRES    WAVE
                       AIR SEA DIR/SP/G            HT/PER
                 (UTC) (F)     (DEG/KT/KT) (MB)    (FT/S)
DEVILS ISLAND    2100   24      80/ 13/ 15 1029.1R
SAXON HARBOR     2130   20     340/  2/  4 1027.1R
$$

LMZ867-665-643>646-152300-
LAKE MICHIGAN

STATION/POSITION TIME  TEMP    WIND        PRES    WAVE
                       AIR SEA DIR/SP/G            HT/PER
                 (UTC) (F)     (DEG/KT/KT) (MB)    (FT/S)
NORTHPORT PIER   2140   22      CALM  /  2 1025.1R
KEWAUNEE LAKESHO 2130   22      90/  6/  9 1022.9R
SHEBOYGAN LAKESH 2100   24     100/ 15/ 17 1022.5R
PORT WASHINGTON  2140   23     330/  5/  6 1022.7R
MILWAUKEE LAKESH 2130   24      20/  7/  8   N/A
KENOSHA   LAKESH 2100   23     300/  3/  4 1021.3
$$

TC  - TEMPERATURE IN CELSIUS
VSB - VISIBILITY IN STATUTE MILES
WCI - WIND CHILL INDEX
HX  - HEAT INDEX





USA.gov is the U.S. government's official web portal to all federal, state and local government web resources and services.